Simultaneous Nadir Overpasses (SNOs) Predictions

Prediction of SNOs between GOES-15 and METOP-C Satellite Orbit:

Table of predicted SNOs for the next 14.0 days since TLE Epoch: 9/17/2023
Index Date Time (GOES-15) GOES-15 Lat,Lon METOP-C Lat,Lon Distance(km) Time Diff (sec)
1 09/18/2023 14:20:56 0.29, 110.27 -0.36, 107.46 321.18 80
2 09/19/2023 13:57:38 0.27, 109.23 0.95, 112.41 362.19 80
3 09/21/2023 02:16:34 -0.28, 107.52 -0.32, 107.77 28.39 80
4 09/22/2023 14:38:18 0.30, 106.02 -0.36, 103.11 331.90 80
5 09/23/2023 14:15:00 0.27, 104.97 0.96, 108.06 351.73 80
6 09/25/2023 02:33:56 -0.29, 103.26 -0.34, 103.42 18.71 80
7 09/26/2023 14:55:40 0.31, 101.74 -0.33, 98.75 340.38 80
8 09/27/2023 14:32:22 0.29, 100.69 0.93, 103.71 344.06 80
9 09/29/2023 02:51:17 -0.30, 98.96 -0.34, 99.07 12.51 80
10 09/30/2023 15:13:01 0.32, 97.43 -0.34, 94.40 344.67 80
